• In Belarus
  • List of Countries
  • For 7 days
  • Water Temperature
  • Weather Map
  • Weather Widgets
  • user-avatar
    Login

    Hourly Weather Koroda

    Today, 3 June, Wednesday

    Time Temperature Precipitation Wind Pressure Humidity
    00:00 +17°C° 0.2 mm 3 mps 679 mmHg 77%
    01:00 +17°C° 0 mm 3 mps 679 mmHg 76%
    02:00 +17°C° 0 mm 3 mps 679 mmHg 75%
    03:00 +18°C° 0 mm 4 mps 679 mmHg 80%
    04:00 +19°C° 0 mm 4 mps 679 mmHg 78%
    05:00 +19°C° 0 mm 3 mps 679 mmHg 76%
    06:00 +20°C° 0 mm 3 mps 680 mmHg 74%
    07:00 +24°C° 0 mm 2 mps 680 mmHg 62%
    08:00 +26°C° 0 mm 2 mps 681 mmHg 51%
    09:00 +28°C° 0 mm 2 mps 682 mmHg 40%
    10:00 +29°C° 0 mm 2 mps 682 mmHg 37%
    11:00 +30°C° 0 mm 2 mps 682 mmHg 34%
    12:00 +30°C° 0 mm 3 mps 682 mmHg 31%
    13:00 +30°C° 0.3 mm 3 mps 682 mmHg 35%
    14:00 +30°C° 0.3 mm 3 mps 682 mmHg 38%
    15:00 +29°C° 0.3 mm 2 mps 682 mmHg 42%
    16:00 +27°C° 0.4 mm 2 mps 682 mmHg 51%
    17:00 +26°C° 0.4 mm 2 mps 682 mmHg 60%
    18:00 +24°C° 0.4 mm 2 mps 682 mmHg 70%
    19:00 +23°C° 0.3 mm 2 mps 682 mmHg 72%
    20:00 +20°C° 0.3 mm 2 mps 682 mmHg 74%
    21:00 +19°C° 0.3 mm 2 mps 683 mmHg 77%
    22:00 +18°C° 0 mm 2 mps 683 mmHg 76%
    23:00 +18°C° 0 mm 2 mps 683 mmHg 74%

    Tomorrow, 4 June, Thursday

    Time Temperature Precipitation Wind Pressure Humidity
    00:00 +17°C° 0 mm 2 mps 683 mmHg 73%
    01:00 +18°C° 0 mm 1 mps 683 mmHg 74%
    02:00 +16°C° 0 mm 1 mps 683 mmHg 74%
    03:00 +16°C° 0 mm 1 mps 683 mmHg 75%
    04:00 +18°C° 0 mm 1 mps 684 mmHg 75%
    05:00 +18°C° 0 mm 1 mps 684 mmHg 75%
    06:00 +17°C° 0 mm 0 mps 685 mmHg 75%
    07:00 +20°C° 0 mm 1 mps 685 mmHg 72%
    08:00 +21°C° 0 mm 2 mps 685 mmHg 70%
    09:00 +23°C° 0 mm 2 mps 686 mmHg 68%
    10:00 +23°C° 0.1 mm 2 mps 685 mmHg 70%
    11:00 +22°C° 0.1 mm 3 mps 685 mmHg 72%
    12:00 +22°C° 0.1 mm 3 mps 685 mmHg 74%
    13:00 +22°C° 0.1 mm 3 mps 685 mmHg 74%
    14:00 +23°C° 0.1 mm 2 mps 685 mmHg 74%
    15:00 +23°C° 0.1 mm 2 mps 685 mmHg 75%
    16:00 +21°C° 0 mm 2 mps 685 mmHg 77%
    17:00 +21°C° 0 mm 2 mps 685 mmHg 79%
    18:00 +20°C° 0 mm 2 mps 685 mmHg 81%
    19:00 +20°C° 0.1 mm 1 mps 685 mmHg 84%
    20:00 +19°C° 0.1 mm 1 mps 685 mmHg 87%
    21:00 +18°C° 0.1 mm 1 mps 685 mmHg 91%
    22:00 +18°C° 0.1 mm 1 mps 685 mmHg 89%
    23:00 +18°C° 0.1 mm 1 mps 685 mmHg 87%

    Day after tomorrow, 5 June, Friday

    Time Temperature Precipitation Wind Pressure Humidity
    00:00 +17°C° 0.1 mm 2 mps 685 mmHg 86%
    01:00 +16°C° 0 mm 2 mps 685 mmHg 85%
    02:00 +16°C° 0 mm 2 mps 685 mmHg 84%
    03:00 +16°C° 0 mm 2 mps 685 mmHg 83%
    04:00 +17°C° 0 mm 2 mps 686 mmHg 80%
    05:00 +18°C° 0 mm 2 mps 686 mmHg 77%
    06:00 +20°C° 0 mm 1 mps 687 mmHg 74%
    07:00 +20°C° 0.1 mm 2 mps 687 mmHg 72%
    08:00 +21°C° 0.1 mm 2 mps 688 mmHg 69%
    09:00 +23°C° 0.1 mm 2 mps 688 mmHg 66%
    10:00 +23°C° 0.5 mm 2 mps 688 mmHg 70%
    11:00 +21°C° 0.5 mm 2 mps 688 mmHg 74%
    12:00 +21°C° 0.5 mm 3 mps 688 mmHg 78%
    13:00 +20°C° 0.7 mm 2 mps 688 mmHg 80%
    14:00 +20°C° 0.7 mm 2 mps 688 mmHg 83%
    15:00 +19°C° 0.7 mm 2 mps 688 mmHg 85%
    16:00 +19°C° 0.8 mm 2 mps 688 mmHg 87%
    17:00 +18°C° 0.8 mm 2 mps 688 mmHg 88%
    18:00 +19°C° 0.8 mm 1 mps 688 mmHg 90%
    19:00 +18°C° 0.7 mm 1 mps 689 mmHg 92%
    20:00 +18°C° 0.7 mm 1 mps 689 mmHg 93%
    21:00 +15°C° 0.7 mm 0 mps 690 mmHg 95%
    22:00 +16°C° 0.4 mm 1 mps 689 mmHg 93%
    23:00 +15°C° 0.4 mm 1 mps 689 mmHg 91%

    6 June, Saturday

    Time Temperature Precipitation Wind Pressure Humidity
    00:00 +15°C° 0.4 mm 1 mps 689 mmHg 89%
    01:00 +15°C° 0 mm 1 mps 689 mmHg 87%
    02:00 +14°C° 0 mm 1 mps 689 mmHg 86%
    03:00 +14°C° 0 mm 1 mps 689 mmHg 84%
    04:00 +15°C° 0 mm 1 mps 689 mmHg 82%
    05:00 +15°C° 0 mm 0 mps 690 mmHg 80%
    06:00 +16°C° 0 mm 0 mps 690 mmHg 78%
    07:00 +19°C° 0 mm 1 mps 690 mmHg 74%
    08:00 +21°C° 0 mm 1 mps 691 mmHg 70%
    09:00 +21°C° 0 mm 2 mps 691 mmHg 67%
    10:00 +23°C° 0.1 mm 2 mps 691 mmHg 66%
    11:00 +24°C° 0.1 mm 2 mps 691 mmHg 65%
    12:00 +24°C° 0.1 mm 3 mps 691 mmHg 64%
    13:00 +24°C° 0.5 mm 2 mps 691 mmHg 66%
    14:00 +24°C° 0.5 mm 2 mps 691 mmHg 69%
    15:00 +23°C° 0.5 mm 2 mps 690 mmHg 72%
    16:00 +23°C° 0.4 mm 2 mps 690 mmHg 74%
    17:00 +22°C° 0.4 mm 1 mps 690 mmHg 76%
    18:00 +22°C° 0.4 mm 1 mps 690 mmHg 79%
    19:00 +20°C° 0 mm 1 mps 690 mmHg 83%
    20:00 +19°C° 0 mm 1 mps 690 mmHg 87%
    21:00 +15°C° 0 mm 0 mps 690 mmHg 91%
    22:00 +15°C° 0 mm 0 mps 690 mmHg 91%
    23:00 +16°C° 0 mm 1 mps 690 mmHg 90%

    7 June, Sunday

    Time Temperature Precipitation Wind Pressure Humidity
    00:00 +15°C° 0 mm 1 mps 690 mmHg 89%
    01:00 +15°C° 0 mm 1 mps 690 mmHg 88%
    02:00 +15°C° 0 mm 1 mps 689 mmHg 87%
    03:00 +15°C° 0 mm 1 mps 689 mmHg 85%
    04:00 +16°C° 0 mm 1 mps 690 mmHg 82%
    05:00 +18°C° 0 mm 1 mps 690 mmHg 79%
    06:00 +17°C° 0 mm 0 mps 690 mmHg 75%
    07:00 +20°C° 0 mm 1 mps 690 mmHg 72%
    08:00 +22°C° 0 mm 1 mps 691 mmHg 68%
    09:00 +23°C° 0 mm 2 mps 691 mmHg 64%
    10:00 +24°C° 0 mm 2 mps 691 mmHg 61%
    11:00 +25°C° 0 mm 2 mps 691 mmHg 57%
    12:00 +26°C° 0 mm 3 mps 691 mmHg 54%
    13:00 +26°C° 0.1 mm 3 mps 691 mmHg 55%
    14:00 +25°C° 0.1 mm 3 mps 691 mmHg 56%
    15:00 +25°C° 0.1 mm 3 mps 690 mmHg 57%
    16:00 +25°C° 0.2 mm 2 mps 690 mmHg 61%
    17:00 +24°C° 0.2 mm 2 mps 690 mmHg 65%
    18:00 +23°C° 0.2 mm 1 mps 690 mmHg 69%
    19:00 +21°C° 0.1 mm 1 mps 689 mmHg 74%
    20:00 +20°C° 0.1 mm 1 mps 689 mmHg 79%
    21:00 +18°C° 0.1 mm 1 mps 689 mmHg 85%
    22:00 +16°C° 0 mm 1 mps 689 mmHg 85%
    23:00 +16°C° 0 mm 1 mps 689 mmHg 84%

    8 June, Monday

    Time Temperature Precipitation Wind Pressure Humidity
    00:00 +16°C° 0 mm 1 mps 689 mmHg 84%
    01:00 +16°C° 0 mm 1 mps 688 mmHg 84%
    02:00 +15°C° 0 mm 1 mps 688 mmHg 83%
    03:00 +15°C° 0 mm 1 mps 688 mmHg 82%
    04:00 +16°C° 0 mm 1 mps 688 mmHg 79%
    05:00 +19°C° 0 mm 1 mps 688 mmHg 75%
    06:00 +20°C° 0 mm 1 mps 689 mmHg 72%
    07:00 +21°C° 0 mm 1 mps 689 mmHg 66%
    08:00 +23°C° 0 mm 1 mps 689 mmHg 61%
    09:00 +25°C° 0 mm 1 mps 689 mmHg 55%
    10:00 +26°C° 0 mm 2 mps 689 mmHg 53%
    11:00 +27°C° 0 mm 2 mps 689 mmHg 50%
    12:00 +28°C° 0 mm 2 mps 689 mmHg 47%
    13:00 +28°C° 0 mm 2 mps 689 mmHg 49%
    14:00 +28°C° 0 mm 2 mps 689 mmHg 50%
    15:00 +28°C° 0 mm 2 mps 689 mmHg 52%
    16:00 +27°C° 0.1 mm 2 mps 689 mmHg 58%
    17:00 +26°C° 0.1 mm 2 mps 688 mmHg 64%
    18:00 +25°C° 0.1 mm 2 mps 688 mmHg 70%
    19:00 +23°C° 0.1 mm 1 mps 688 mmHg 75%
    20:00 +21°C° 0.1 mm 1 mps 688 mmHg 81%
    21:00 +19°C° 0.1 mm 1 mps 688 mmHg 86%
    22:00 +19°C° 0 mm 1 mps 687 mmHg 85%
    23:00 +18°C° 0 mm 2 mps 687 mmHg 85%
    Show more